Regional Weather Roundup
Issued by NWS Raleigh/Durham, NC

Home | Current Version | Previous Version | Text Only | Print | Product List | Glossary On
Versions: 1 2 3 4 5 6 7 8 9 10 11 12 13 14 15 16 17 18 19 20 21 22 23 24 25 26 27
000
ASUS42 KRAH 132110
RWRRAH
NORTH CAROLINA WEATHER ROUNDUP
NATIONAL WEATHER SERVICE RALEIGH NC
400 PM EST WED DEC 13 2017

NOTE: "FAIR" INDICATES FEW OR NO CLOUDS BELOW 12,000 FEET WITH NO
SIGNIFICANT WEATHER AND/OR OBSTRUCTIONS TO VISIBILITY.

NCZ001-053-055-056-065-067-132200-
WESTERN NORTH CAROLINA

CITY           SKY/WX    TMP DP  RH WIND       PRES   REMARKS
ASHEVILLE      SUNNY     42  17  36 S10       29.76F
JEFFERSON      CLOUDY    34  12  40 S5        29.69F WCI  29
MORGANTON      SUNNY     45  12  26 SW9       29.82F
HICKORY        SUNNY     43  12  28 SW14      29.79F
RUTHERFORDTON  NOT AVBL
MOUNT AIRY     SUNNY     42   7  23 S5        29.79F
BOONE          SUNNY     34   8  34 S7G16     29.71F WCI  28
$$

NCZ021-022-025-041-071-084-088-132200-
CENTRAL NORTH CAROLINA

CITY           SKY/WX    TMP DP  RH WIND       PRES   REMARKS
CHARLOTTE      MOSUNNY   47  14  26 S14       29.85F
GREENSBORO     PTSUNNY   42  13  30 SW14      29.80F
WINSTON-SALEM  SUNNY     43  10  26 SW8       29.80F
RALEIGH-DURHAM PTCLDY    43  11  27 SW13      29.85F
FORT BRAGG     SUNNY     46  11  23 SW9       29.87F
FAYETTEVILLE   SUNNY     46  12  25 SW13      29.88F
BURLINGTON     SUNNY     43  12  28 S8        29.81F
LAURINBURG     SUNNY     47  13  25 SW9       29.90F
$$

NCZ011-015-027-028-043-044-047-080-103-132200-
NORTHEASTERN NORTH CAROLINA

CITY           SKY/WX    TMP DP  RH WIND       PRES   REMARKS
ROCKY MT-WILSO CLEAR     40  11  30 W10       29.89F WCI  33
GREENVILLE     CLEAR     41  10  28 W7        29.92F
WASHINGTON     CLEAR     41   8  26 W8        29.90F
ELIZABETH CITY PTCLDY    38  11  32 W13       29.87R WCI  30
MANTEO         CLEAR     37  11  34 NW10G17   29.89R WCI  30
CAPE HATTERAS  CLEAR     40  16  37 W10G20    29.89S WCI  33
$$

NCZ078-087-090-091-093-098-101-132200-
SOUTHEASTERN NORTH CAROLINA

CITY           SKY/WX    TMP DP  RH WIND       PRES   REMARKS
LUMBERTON      SUNNY     46  16  30 SW12      29.90F
GOLDSBORO      CLEAR     44  11  25 W13       29.87F
KINSTON        CLEAR     43  10  26 SW7       29.90F
KENANSVILLE    CLEAR     45  12  26 W6        29.89F
NEW BERN       CLEAR     41  13  31 W8        29.92R
CHERRY POINT   CLEAR     42  13  30 W10       29.92S
BEAUFORT       CLEAR     43  14  31 W13       29.91S
JACKSONVILLE   CLEAR     44  14  29 W8        29.90F
WILMINGTON     SUNNY     47  15  27 W8        29.93S
$$





USA.gov is the U.S. government's official web portal to all federal, state and local government web resources and services.